Dyersburg, TN

4:59 AM CST on December 16, 2019 (GMT -0600)
Dyersburg Municipal

Weather History for KDYR - October, 2019

Change the Weather History Date:

Tuesday, October 29, 2019

  Actual Average Record
Temperature  
Mean Temperature 59 °F -  
Max Temperature 64 °F 65 °F 82 °F (2004)
Min Temperature 55 °F 47 °F 30 °F (2005)
Degree Days  
Heating Degree Days 6    
Growing Degree Days 9 (Base 50)    
Moisture  
Dew Point 55 °F    
Average Humidity 91    
Maximum Humidity 100    
Minimum Humidity 78    
Precipitation  
Precipitation 0.02 in - - ()
Sea Level Pressure  
Sea Level Pressure 30.15 in    
Wind  
Wind Speed 3 mph ()    
Max Wind Speed 8 mph    
Max Gust Speed -    
Visibility 8.4 miles    
Events Rain    
Averages and records for this station are not official NWS values.
T = Trace of Precipitation, MM = Missing Value Source: Averaged Metar Reports

Daily Weather History Graph

Daily Weather History Graph

Search for Another Location

Airport or City:

Astronomy

Oct. 29, 2019 Rise Set
Actual Time 7:17 AM CDT 6:05 PM CDT
Civil Twilight 6:50 AM CDT 6:31 PM CDT
Nautical Twilight 6:20 AM CDT 7:01 PM CDT
Astronomical Twilight 5:50 AM CDT 7:31 PM CDT
Moon 8:48 AM CDT (10/29) 7:32 PM CDT (10/29)
Length of Visible Light 11h 40m
Length of Day
10h 48m
Waxing Crescent, 3% of the Moon is Illuminated
Oct 29
Waxing Crescent
Nov 4
First Quarter
Nov 12
Full
Nov 19
Last Quarter
Nov 26
New

Hourly Weather History & Observations

Time (CDT) Temp. Dew Point Humidity Pressure Visibility Wind Dir Wind Speed Gust Speed Precip Events Conditions
12:56 AM 55.9 °F 54.0 °F 93% 30.12 in 10.0 mi Variable 4.6 mph - N/A   Overcast
1:56 AM 55.0 °F 54.0 °F 96% 30.11 in 10.0 mi Variable 3.5 mph - N/A   Overcast
2:56 AM 55.0 °F 54.0 °F 96% 30.09 in 10.0 mi SSE 4.6 mph - N/A   Overcast
3:56 AM 55.0 °F 54.0 °F 96% 30.10 in 10.0 mi South 3.5 mph - N/A   Overcast
4:56 AM 55.0 °F 54.0 °F 96% 30.12 in 10.0 mi SSE 3.5 mph - N/A   Overcast
6:10 AM - - N/A% 30.13 in 6.0 mi Calm Calm - N/A   Haze
6:17 AM 55.4 °F 53.6 °F 94% 30.13 in 8.0 mi Variable 3.5 mph - N/A   Overcast
6:29 AM 55.4 °F 53.6 °F 94% 30.13 in 10.0 mi South 3.5 mph - N/A   Overcast
6:56 AM 55.0 °F 54.0 °F 96% 30.16 in 10.0 mi Calm Calm - N/A   Overcast
7:41 AM 55.4 °F 55.4 °F 100% 30.15 in 7.0 mi North - - N/A   Overcast
7:56 AM 55.0 °F 55.0 °F 100% 30.18 in 4.0 mi Calm Calm - N/A   Overcast
8:23 AM 55.4 °F 55.4 °F 100% 30.17 in 2.0 mi Calm Calm - 0.00 in Rain Light Rain
8:35 AM 55.4 °F 55.4 °F 100% 30.18 in 4.0 mi Calm Calm - 0.00 in Rain Light Rain
8:45 AM 55.4 °F 55.4 °F 100% 30.18 in 2.0 mi Calm Calm - 0.01 in Rain Light Rain
8:56 AM 55.9 °F 55.0 °F 97% 30.21 in 3.0 mi WSW 3.5 mph - 0.01 in Rain Light Rain
9:01 AM 55.4 °F 55.4 °F 100% 30.19 in 2.5 mi WSW 5.8 mph - 0.00 in Rain Light Rain
9:15 AM 55.4 °F 55.4 °F 100% 30.19 in 5.0 mi WSW 4.6 mph - 0.01 in   Overcast
9:51 AM 57.2 °F 57.2 °F 100% 30.19 in 10.0 mi Calm Calm - 0.01 in   Overcast
9:56 AM 57.9 °F 55.9 °F 93% 30.21 in 10.0 mi Calm Calm - 0.01 in   Overcast
10:56 AM 60.1 °F 55.0 °F 83% 30.21 in 10.0 mi Calm Calm - N/A   Overcast
11:56 AM 63.0 °F 55.9 °F 78% 30.19 in 10.0 mi Variable 5.8 mph - N/A   Mostly Cloudy
12:56 PM 62.1 °F 55.0 °F 78% 30.18 in 10.0 mi ENE 3.5 mph - N/A   Overcast
1:56 PM 62.1 °F 55.9 °F 80% 30.17 in 10.0 mi SE 4.6 mph - N/A   Overcast
2:56 PM 63.0 °F 55.9 °F 78% 30.17 in 10.0 mi SE 3.5 mph - N/A   Overcast
4:56 PM 62.1 °F 55.9 °F 80% 30.14 in 10.0 mi East 5.8 mph - N/A   Partly Cloudy
5:48 PM 60.8 °F 55.4 °F 82% 30.11 in 10.0 mi East 4.6 mph - N/A   Mostly Cloudy
5:56 PM 61.0 °F 55.9 °F 83% 30.11 in 10.0 mi East 4.6 mph - N/A   Mostly Cloudy
6:12 PM 60.8 °F 55.4 °F 82% 30.11 in 10.0 mi ESE 6.9 mph - N/A   Scattered Clouds
6:19 PM 60.8 °F 55.4 °F 82% 30.11 in 10.0 mi ESE 8.1 mph - N/A   Mostly Cloudy
6:45 PM 59.0 °F 55.4 °F 88% 30.12 in 10.0 mi SE 6.9 mph - N/A   Scattered Clouds
7:19 PM 59.0 °F 55.4 °F 88% 30.12 in 10.0 mi ESE 8.1 mph - N/A   Mostly Cloudy
7:56 PM 59.0 °F 55.0 °F 87% 30.13 in 10.0 mi East 6.9 mph - N/A   Overcast
8:56 PM 57.9 °F 54.0 °F 87% 30.13 in 10.0 mi East 5.8 mph - N/A   Partly Cloudy
9:56 PM 57.0 °F 54.0 °F 89% 30.12 in 10.0 mi East 5.8 mph - N/A   Clear
10:56 PM 57.0 °F 54.0 °F 89% 30.14 in 10.0 mi Calm Calm - N/A   Clear
11:56 PM 55.9 °F 54.0 °F 93% 30.15 in 10.0 mi NW 3.5 mph - N/A   Partly Cloudy